INTELSAT 17 (IS-17) (37238 NORAD) Tracking and Keplerian Element Data

This shows tracking and keplerian element data for the satellite.

Feedback or suggestion? Click here.




ElementValue
Catalog37238
NameINTELSAT 17 (IS-17)
Epoch Orbit4825
Epoch Day34.71364082
Epoch Year2025
RAAN234.6275
Inclination0.0286
Eccentricity0.0002823
Argument of Perigee97.5636
Mean Anonmoly124.824
Mean Motion1.0027071
Decay Rate3E-08
L11 37238U 10065B 25034.71364082 .00000003 00000+0 00000+0 0 9991
L22 37238 0.0286 234.6275 0002823 97.5636 124.8240 1.00270710 48259



Live tracking and technical data element details for INTELSAT 17 (IS-17) (NORAD 37238). INTELSAT 17 (IS-17) can be tracked NOW for your location showing map with azimuth and elevation plus other details from your city location.







IsCatalogInMostPopularTable: catalog: 37238, numindb: 696
Update: records affected: 1



GetName: 37238 INTELSAT 17 (IS-17)

Hit Count: updated at: Sat, 17 May 2025 06:35:47 GMT